TimePST,TemperatureF,Dew PointF,Humidity,Sea Level PressureIn,VisibilityMPH,Wind Direction,Wind SpeedMPH,Gust SpeedMPH,PrecipitationIn,Events,Conditions,WindDirDegrees,DateUTC
12:56 AM,55.9,25.2,31,29.84,10.0,SW,4.6,-,N/A,,Clear,230,2013-02-06 08:56:00
2:56 AM,56.8,24.1,28,29.83,10.0,SSW,13.8,-,N/A,,Clear,210,2013-02-06 10:56:00
3:56 AM,52.0,25.2,35,29.85,10.0,SSW,11.5,-,N/A,,Clear,200,2013-02-06 11:56:00
4:56 AM,50.9,27.1,40,29.88,10.0,WSW,3.5,-,N/A,,Clear,240,2013-02-06 12:56:00
5:56 AM,45.9,28.0,50,29.91,10.0,SSE,8.1,-,N/A,,Clear,160,2013-02-06 13:56:00
6:56 AM,45.0,29.1,54,29.93,10.0,South,6.9,-,N/A,,Clear,190,2013-02-06 14:56:00
7:56 AM,50.0,31.1,48,29.95,10.0,South,9.2,-,N/A,,Clear,180,2013-02-06 15:56:00
8:56 AM,57.9,26.1,30,29.95,10.0,Calm,Calm,-,N/A,,Clear,0,2013-02-06 16:56:00
9:56 AM,59.9,26.1,27,29.97,10.0,Variable,4.6,-,N/A,,Clear,0,2013-02-06 17:56:00
10:56 AM,63.0,25.2,24,29.97,10.0,NNW,5.8,-,N/A,,Clear,330,2013-02-06 18:56:00
11:56 AM,66.9,22.1,18,29.95,10.0,NNE,12.7,-,N/A,,Clear,20,2013-02-06 19:56:00
12:56 PM,68.0,21.0,17,29.94,10.0,NE,13.8,-,N/A,,Clear,40,2013-02-06 20:56:00
1:56 PM,68.0,19.0,15,29.93,10.0,North,16.1,-,N/A,,Clear,10,2013-02-06 21:56:00
2:56 PM,68.0,15.1,13,29.94,10.0,NNW,12.7,-,N/A,,Clear,340,2013-02-06 22:56:00
3:56 PM,66.9,16.2,14,29.95,10.0,NNE,8.1,-,N/A,,Clear,30,2013-02-06 23:56:00
4:56 PM,63.9,17.1,16,29.97,10.0,North,5.8,-,N/A,,Clear,10,2013-02-07 00:56:00
5:56 PM,61.9,15.1,16,30.00,10.0,West,6.9,-,N/A,,Clear,260,2013-02-07 01:56:00
6:56 PM,56.8,17.1,21,30.02,10.0,SSE,5.8,-,N/A,,Clear,160,2013-02-07 02:56:00
7:56 PM,52.9,19.0,26,30.03,10.0,SSE,9.2,-,N/A,,Clear,160,2013-02-07 03:56:00
8:56 PM,50.0,19.0,29,30.05,10.0,SSW,10.4,-,N/A,,Clear,210,2013-02-07 04:56:00
9:56 PM,50.0,16.2,26,30.07,10.0,Variable,6.9,-,N/A,,Clear,0,2013-02-07 05:56:00
10:56 PM,46.9,16.2,29,30.08,10.0,SSE,6.9,-,N/A,,Clear,150,2013-02-07 06:56:00
11:56 PM,45.0,17.1,33,30.08,10.0,SSE,6.9,-,N/A,,Clear,160,2013-02-07 07:56:00